Regional Weather Roundup
Issued by NWS

Home | Current Version | Previous Version | Graphics & Text | Print | Product List | Glossary On
Versions: 1 2 3 4 5 6 7 8 9 10 11 12 13 14 15 16 17 18 19 20 21 22 23 24 25 26 27 28 29 30 31 32 33 34 35 36 37 38 39 40 41 42 43 44 45 46 47 48 49 50
000
ASUS43 KOAX 191102
RWRNE

WEATHER ROUNDUP FOR NEBRASKA
NATIONAL WEATHER SERVICE OMAHA NE
500 AM CST MON FEB 19 2018

NOTES: SATELLITE DATA IS BEING USED TO AUGMENT CLOUD COVER ABOVE
       12000 FEET.
       "FAIR" INDICATES FEW OR NO CLOUDS BELOW 12,000 FEET WITH NO
       SIGNIFICANT WEATHER AND/OR OBSTRUCTIONS TO VISIBILITY.


NEZ001>004-019>022-054>056-191200-
NEBRASKA PANHANDLE

CITY           SKY/WX    TMP DP  RH WIND       PRES   REMARKS
SCOTTSBLUFF    LGT SNOW   8   3  80 N12       29.83S WCI  -7
ALLIANCE       CLOUDY     6   3  87 N15       29.82R WCI -12
CHADRON        LGT SNOW   4   0  83 NE12      29.95R FOG     WCI -12
GORDON         LGT SNOW   6   0  76 N18       29.87R WCI -14
KIMBALL        FLURRIES   8   4  86 N12G18    29.72S WCI  -7
SIDNEY         LGT SNOW   8   5  87 N17       29.76R FOG     WCI -10
$$

NEZ057>060-069>072-079>082-191200-
SOUTHWEST NEBRASKA

CITY           SKY/WX    TMP DP  RH WIND       PRES   REMARKS
NORTH PLATTE   LGT SNOW  13   7  77 N18       29.82R WCI  -4
IMPERIAL       FLURRIES  13  10  88 N18G26    29.78F WCI  -4
LEXINGTON      FLURRIES  17  13  82 N23       29.79R WCI   0
MCCOOK         CLOUDY    17  13  84 N22       29.78S WCI   0
OGALLALA       LGT SNOW  14  10  83 N16       29.81F WCI  -2
$$

NEZ005>010-023>029-035>040-094-191200-
NORTH CENTRAL NEBRASKA

CITY           SKY/WX    TMP DP  RH WIND       PRES   REMARKS
VALENTINE      LGT SNOW  10   3  73 N16       29.91R WCI  -7
AINSWORTH      FLURRIES  10   6  87 N28G33    29.87S WCI -12
BROKEN BOW     FLURRIES  14   9  80 N28G39    29.80R WCI  -6
O`NEILL        LGT SNOW  12  10  89 N24G31    29.86R WCI  -8
ORD            LGT SNOW  14  10  84 N25G36    29.80S FOG     WCI  -5
THEDFORD       CLOUDY    11   7  83 N17G24    29.85S WCI  -6
$$

NEZ041-046>049-061>064-073>077-083>087-191200-
SOUTH CENTRAL NEBRASKA

CITY           SKY/WX    TMP DP  RH WIND       PRES   REMARKS
GRAND ISLAND   MIX PCPN  18  15  88 N23G36    29.76R WCI   0
AURORA         CLOUDY    19  16  87 N24G30    29.74S WCI   2
HASTINGS       CLOUDY    18  15  88 N29G39    29.75R WCI  -1
HEBRON         CLOUDY    27  25  93 N22G30    29.70R FOG     WCI  12
HOLDREGE       CLOUDY    18  16  94 N23       29.75S WCI   0
KEARNEY        LGT SNOW  17  14  88 MISG      29.77R FOG
YORK           PTCLDY    23  23 100 N25G35    29.73R WCI   7
$$

NEZ011>018-030>034-042>045-191200-
NORTHEAST NEBRASKA

CITY           SKY/WX    TMP DP  RH WIND       PRES   REMARKS
NORFOLK        LGT SNOW  18  16  92 N20G44    29.78R FOG     WCI   2
ALBION         LGT SNOW  16  13  86 N18G25    29.78S WCI   0
BLAIR          MIX PCPN  28  27  94 N18       29.67R WCI  15
COLUMBUS       MIX PCPN  21  19  92 MISG      29.77R
FREMONT        MIX PCPN  26  24  94 N13G18    29.73R WCI  14
TEKAMAH        MIX PCPN  25  23  92 N29G38    29.74R FOG     WCI   8
WAYNE          MIX PCPN  20  19  96 N18G24    29.78R WCI   5
$$

NEZ050>053-065>068-078-088>093-191200-
SOUTHEAST NEBRASKA

CITY           SKY/WX    TMP DP  RH WIND       PRES   REMARKS
LINCOLN        MIX PCPN  27  25  92 N22       29.70R FOG     WCI  13
OMAHA EPPLEY   FRZ RAIN  31  29  92 N25G31    29.66R FOG     WCI  17
BEATRICE       CLOUDY    32  31  98 N20G26    29.66R FOG     WCI  20
FALLS CITY     CLOUDY    52  52 100 SE7       29.56S
NEBRASKA CITY  DRIZZLE   34  34 100 N16       29.61R WCI  23
PLATTSMOUTH    MIX PCPN  33  33 100 NW18      29.63R WCI  21
$$

NEZ044-045-051>053-067-191200-
OMAHA AREA

CITY           SKY/WX    TMP DP  RH WIND       PRES   REMARKS
OMAHA EPPLEY   FRZ RAIN  31  29  92 N25G31    29.66R FOG     WCI  17
BLAIR          MIX PCPN  28  27  94 N18       29.67R WCI  15
FREMONT        MIX PCPN  26  24  94 N13G18    29.73R WCI  14
MILLARD        MIX PCPN  31  29  92 NW12G23   29.68R WCI  22
OFFUTT AFB     LGT RAIN  33  32  95 N17G25    29.64R WCI  22
PLATTSMOUTH    MIX PCPN  33  33 100 NW18      29.63R WCI  21
WAHOO          MIX PCPN  27  24  90 MISG      29.70R
$$



USA.gov is the U.S. government's official web portal to all federal, state and local government web resources and services.